Weather History for KFBG - May, 2014

Change the Weather History Date:

Sunday, May 25, 2014

  Actual Average Record
Temperature  
Mean Temperature 68 °F -  
Max Temperature 83 °F 80 °F 97 °F (2011)
Min Temperature 55 °F 61 °F 47 °F (2013)
Cooling Degree Days 4    
Growing Degree Days 18 (Base 50)    
Moisture  
Dew Point 54 °F    
Average Humidity 58    
Maximum Humidity 94    
Minimum Humidity 33    
Precipitation  
Precipitation 0.00 in - - ()
Sea Level Pressure  
Sea Level Pressure 30.16 in    
Wind  
Wind Speed 2 mph (SE)    
Max Wind Speed 7 mph    
Max Gust Speed -    
Visibility 10 miles    
Events Rain    
Averages and records for this station are not official NWS values.
T = Trace of Precipitation, MM = Missing Value Source: NWS Daily Summary

Daily Weather History Graph

Daily Weather History Graph

Search for Another Location

Airport or City:

Trip Planner

Search our weather history database for the weather conditions in past years. The results will help you decide how hot, cold, wet, or windy it might be!

Date:

Astronomy

May. 25, 2014 Rise Set
Actual Time 6:05 AM EDT 8:20 PM EDT
Civil Twilight 5:36 AM EDT 8:49 PM EDT
Nautical Twilight 5:01 AM EDT 9:24 PM EDT
Astronomical Twilight 4:23 AM EDT 10:02 PM EDT
Moon 4:01 AM EDT (5/25) 5:25 PM EDT (5/25)
Length of Visible Light 15h 12m
Length of Day
14h 14m
Waning Crescent, 10% of the Moon is Illuminated
May 25
Waning Crescent
May 28
New
Jun 5
First Quarter
Jun 13
Full
Jun 19
Last Quarter

Hourly Weather History & Observations

Time (EDT) Temp. Heat Index Dew Point Humidity Pressure Visibility Wind Dir Wind Speed Gust Speed Precip Events Conditions
12:58 AM 62.8 °F - 56.3 °F 79% 30.13 in 10.0 mi Calm Calm - N/A   Clear
1:58 AM 59.4 °F - 55.2 °F 86% 30.13 in 10.0 mi Calm Calm - N/A   Clear
2:58 AM 57.6 °F - 54.5 °F 90% 30.13 in 10.0 mi Calm Calm - N/A   Clear
3:58 AM 56.5 °F - 54.7 °F 94% 30.12 in 10.0 mi Calm Calm - N/A   Clear
4:58 AM 55.9 °F - 54.1 °F 94% 30.14 in 10.0 mi Calm Calm - N/A   Clear
5:58 AM 55.8 °F - 53.8 °F 93% 30.15 in 10.0 mi Calm Calm - N/A   Clear
6:58 AM 56.8 °F - 54.7 °F 92% 30.17 in 10.0 mi Calm Calm - N/A   Clear
7:58 AM 64.2 °F - 58.5 °F 82% 30.19 in 10.0 mi Variable 2.3 mph - N/A   Clear
8:58 AM 70.5 °F - 59.7 °F 69% 30.20 in 10.0 mi SSW 4.6 mph - N/A   Clear
9:58 AM 74.5 °F - 58.8 °F 58% 30.20 in 10.0 mi South 4.6 mph - N/A   Clear
10:58 AM 78.4 °F - 51.6 °F 39% 30.21 in 10.0 mi SE 4.6 mph - N/A   Clear
11:58 AM 79.0 °F - 49.6 °F 36% 30.21 in 10.0 mi East 4.6 mph - N/A   Partly Cloudy
12:38 PM 80.6 °F - 50.0 °F 34% 30.18 in 10.0 mi ESE 4.6 mph - N/A Rain Light Rain
12:47 PM 80.6 °F - 50.0 °F 34% 30.18 in 10.0 mi ESE 4.6 mph - N/A   Partly Cloudy
12:58 PM 80.6 °F - 49.3 °F 33% 30.19 in 10.0 mi Variable 2.3 mph - 0.00 in   Partly Cloudy
1:15 PM 80.6 °F - 50.0 °F 34% 30.17 in 10.0 mi Variable 1.2 mph - N/A Rain Light Rain
1:24 PM 80.6 °F - 50.0 °F 34% 30.17 in 10.0 mi West 4.6 mph - N/A   Scattered Clouds
1:58 PM 80.6 °F - 50.0 °F 34% 30.17 in 10.0 mi Calm Calm - 0.00 in   Partly Cloudy
2:58 PM 81.3 °F - 51.3 °F 35% 30.16 in 10.0 mi WNW 2.3 mph - N/A   Scattered Clouds
3:58 PM 81.7 °F - 52.0 °F 36% 30.15 in 10.0 mi Calm Calm - N/A   Partly Cloudy
4:58 PM 82.2 °F 81.3 °F 53.6 °F 37% 30.14 in 10.0 mi East 4.6 mph - N/A   Clear
5:58 PM 81.3 °F 80.7 °F 53.6 °F 38% 30.13 in 10.0 mi East 5.8 mph - N/A   Mostly Cloudy
6:58 PM 80.1 °F 80.1 °F 54.7 °F 41% 30.14 in 10.0 mi ESE 4.6 mph - N/A   Scattered Clouds
7:58 PM 77.0 °F - 57.6 °F 51% 30.14 in 10.0 mi East 3.5 mph - N/A   Scattered Clouds
8:58 PM 73.4 °F - 59.5 °F 62% 30.16 in 10.0 mi ENE 2.3 mph - N/A   Partly Cloudy
9:58 PM 71.6 °F - 61.2 °F 70% 30.18 in 10.0 mi Calm Calm - N/A   Partly Cloudy
10:58 PM 73.6 °F - 60.1 °F 63% 30.19 in 10.0 mi South 6.9 mph - N/A   Clear
11:58 PM 71.4 °F - 59.7 °F 66% 30.19 in 10.0 mi South 5.8 mph - N/A   Clear